SCO901P EGPH-EGPK

Flight info

Callsign SCO901P
Flight time 0h 21m
Altitude 12000
Route GOSAM P600 TRN
Aircraft B738/M-SDE2E3FGHIRWXY/LB1

Departure

Time 2026-05-04 01:51
Airport Edinburgh Airport (EGPH)

Arrival

Time 2026-05-04 02:13
Airport Glasgow Prestwick Airport (EGPK)
Time Latitude Longitude Altitude Speed Heading
2026-05-04 01:31 55.94659 -3.36621 111 ft 0 kts 87°
2026-05-04 01:35 55.94659 -3.36622 111 ft 0 kts 87°
2026-05-04 01:36 55.94659 -3.36624 111 ft 0 kts 87°
2026-05-04 01:36 55.94659 -3.36626 111 ft 0 kts 87°
2026-05-04 01:36 55.94659 -3.36628 111 ft 0 kts 87°
2026-05-04 01:36 55.94659 -3.36630 111 ft 0 kts 87°
2026-05-04 01:37 55.94659 -3.36631 111 ft 0 kts 87°
2026-05-04 01:37 55.94659 -3.36633 111 ft 0 kts 87°
2026-05-04 01:37 55.94659 -3.36635 111 ft 0 kts 87°
2026-05-04 01:37 55.94659 -3.36637 111 ft 0 kts 87°
2026-05-04 01:38 55.94659 -3.36639 111 ft 0 kts 87°
2026-05-04 01:38 55.94659 -3.36641 111 ft 0 kts 87°
2026-05-04 01:38 55.94659 -3.36643 111 ft 0 kts 87°
2026-05-04 01:38 55.94659 -3.36645 111 ft 0 kts 87°
2026-05-04 01:39 55.94659 -3.36647 110 ft 0 kts 88°
2026-05-04 01:39 55.94659 -3.36649 110 ft 0 kts 88°
2026-05-04 01:39 55.94659 -3.36651 110 ft 0 kts 88°
2026-05-04 01:39 55.94659 -3.36653 110 ft 0 kts 88°
2026-05-04 01:40 55.94659 -3.36681 110 ft 3 kts 87°
2026-05-04 01:40 55.94658 -3.36714 107 ft 3 kts 87°
2026-05-04 01:40 55.94657 -3.36747 107 ft 2 kts 87°
2026-05-04 01:40 55.94657 -3.36753 108 ft 0 kts 87°
2026-05-04 01:47 55.94657 -3.36751 108 ft 0 kts 82°
2026-05-04 01:48 55.94659 -3.36749 108 ft 0 kts 55°
2026-05-04 01:48 55.94666 -3.36741 107 ft 4 kts 37°
2026-05-04 01:48 55.94704 -3.36729 111 ft 9 kts
2026-05-04 01:48 55.94792 -3.36766 110 ft 17 kts 346°
2026-05-04 01:49 55.94918 -3.36821 111 ft 20 kts 352°
2026-05-04 01:49 55.94993 -3.36728 111 ft 14 kts 60°
2026-05-04 01:49 55.95044 -3.36550 109 ft 18 kts 58°
2026-05-04 01:49 55.95120 -3.36329 111 ft 23 kts 58°
2026-05-04 01:50 55.95215 -3.36057 111 ft 28 kts 58°
2026-05-04 01:50 55.95323 -3.35736 110 ft 32 kts 60°
2026-05-04 01:50 55.95437 -3.35438 112 ft 23 kts 31°
2026-05-04 01:50 55.95517 -3.35465 109 ft 13 kts 329°
2026-05-04 01:51 55.95564 -3.35571 112 ft 8 kts 270°
2026-05-04 01:51 55.95491 -3.35800 109 ft 60 kts 237°
2026-05-04 01:51 55.95047 -3.37114 338 ft 169 kts 239°
2026-05-04 01:51 55.94364 -3.39179 1037 ft 217 kts 241°
2026-05-04 01:52 55.93764 -3.41676 2522 ft 209 kts 251°
2026-05-04 01:52 55.93276 -3.44271 3412 ft 234 kts 252°
2026-05-04 01:52 55.92760 -3.47130 3983 ft 252 kts 252°
2026-05-04 01:52 55.92214 -3.50141 4782 ft 257 kts 252°
2026-05-04 01:53 55.91657 -3.53187 5634 ft 259 kts 252°
2026-05-04 01:53 55.91092 -3.56248 6501 ft 261 kts 252°
2026-05-04 01:53 55.90520 -3.59324 7701 ft 266 kts 253°
2026-05-04 01:53 55.89927 -3.62493 8943 ft 273 kts 253°
2026-05-04 01:54 55.89316 -3.65750 9771 ft 280 kts 253°
2026-05-04 01:54 55.88695 -3.69047 9997 ft 281 kts 253°
2026-05-04 01:54 55.88068 -3.72358 10000 ft 282 kts 253°
2026-05-04 01:54 55.87440 -3.75665 10011 ft 282 kts 253°
2026-05-04 01:55 55.86810 -3.78979 10015 ft 283 kts 253°
2026-05-04 01:55 55.86177 -3.82303 10010 ft 284 kts 253°
2026-05-04 01:55 55.85542 -3.85628 10008 ft 284 kts 253°
2026-05-04 01:55 55.84901 -3.88983 10020 ft 296 kts 253°
2026-05-04 01:56 55.84197 -3.92680 10027 ft 327 kts 253°
2026-05-04 01:56 55.83457 -3.96539 10013 ft 331 kts 253°
2026-05-04 01:56 55.82707 -4.00426 9994 ft 331 kts 253°
2026-05-04 01:56 55.81961 -4.04295 9994 ft 331 kts 253°
2026-05-04 01:57 55.81215 -4.08158 10000 ft 330 kts 253°
2026-05-04 01:57 55.80468 -4.12019 9999 ft 330 kts 253°
2026-05-04 01:57 55.79713 -4.15872 10002 ft 330 kts 251°
2026-05-04 01:57 55.78610 -4.19466 9997 ft 333 kts 236°
2026-05-04 01:58 55.77044 -4.22527 9792 ft 340 kts 222°
2026-05-04 01:58 55.75120 -4.24961 9261 ft 338 kts 215°
2026-05-04 01:58 55.73836 -4.26463 8902 ft 328 kts 215°
2026-05-04 01:58 55.71979 -4.28663 8376 ft 314 kts 216°
2026-05-04 01:59 55.70213 -4.30790 7853 ft 300 kts 216°
2026-05-04 01:59 55.68517 -4.32873 7132 ft 294 kts 216°
2026-05-04 01:59 55.66853 -4.34928 6409 ft 289 kts 216°
2026-05-04 01:59 55.65219 -4.36948 5659 ft 285 kts 217°
2026-05-04 02:00 55.63601 -4.38947 4921 ft 282 kts 217°
2026-05-04 02:00 55.61487 -4.41556 3918 ft 278 kts 216°
2026-05-04 02:00 55.60418 -4.42874 3420 ft 276 kts 216°
2026-05-04 02:00 55.58850 -4.44804 2673 ft 274 kts 216°
2026-05-04 02:01 55.57317 -4.46688 2301 ft 260 kts 216°
2026-05-04 02:01 55.55888 -4.48441 2152 ft 243 kts 216°
2026-05-04 02:01 55.54530 -4.50107 2034 ft 233 kts 216°
2026-05-04 02:01 55.53232 -4.51697 1991 ft 221 kts 216°
2026-05-04 02:02 55.51996 -4.53211 1993 ft 215 kts 216°
2026-05-04 02:02 55.50761 -4.54725 1995 ft 216 kts 216°
2026-05-04 02:02 55.49532 -4.56230 1997 ft 214 kts 216°
2026-05-04 02:02 55.48279 -4.57763 2018 ft 230 kts 216°
2026-05-04 02:03 55.46918 -4.59429 2004 ft 242 kts 216°
2026-05-04 02:03 55.45522 -4.61133 2008 ft 246 kts 216°
2026-05-04 02:03 55.44114 -4.62849 1996 ft 246 kts 216°
2026-05-04 02:03 55.42726 -4.64540 1989 ft 246 kts 216°
2026-05-04 02:04 55.41320 -4.66249 1998 ft 245 kts 216°
2026-05-04 02:04 55.39918 -4.67952 1991 ft 245 kts 215°
2026-05-04 02:04 55.38669 -4.69944 1989 ft 243 kts 238°
2026-05-04 02:04 55.38161 -4.72707 2003 ft 239 kts 269°
2026-05-04 02:05 55.38528 -4.75519 2007 ft 238 kts 299°
2026-05-04 02:05 55.39615 -4.77572 1988 ft 226 kts 328°
2026-05-04 02:05 55.41010 -4.78473 1996 ft 202 kts 351°
2026-05-04 02:05 55.42339 -4.78604 1994 ft 181 kts 359°
2026-05-04 02:06 55.43514 -4.78604 1970 ft 157 kts 359°
2026-05-04 02:06 55.44534 -4.78598 1976 ft 137 kts 359°
2026-05-04 02:06 55.45461 -4.78595 2025 ft 128 kts 359°
2026-05-04 02:06 55.46320 -4.78594 1997 ft 120 kts 358°
2026-05-04 02:07 55.47152 -4.78597 2010 ft 121 kts 358°
2026-05-04 02:07 55.48000 -4.78602 2002 ft 123 kts 358°
2026-05-04 02:07 55.48854 -4.78608 2001 ft 123 kts 358°
2026-05-04 02:07 55.49712 -4.78614 1991 ft 123 kts 358°
2026-05-04 02:08 55.50589 -4.78623 1950 ft 129 kts 358°
2026-05-04 02:08 55.51494 -4.78632 1993 ft 131 kts 358°
2026-05-04 02:08 55.52407 -4.78641 1992 ft 131 kts 358°
2026-05-04 02:08 55.53316 -4.78650 1995 ft 130 kts 358°
2026-05-04 02:09 55.54217 -4.78659 1996 ft 129 kts 358°
2026-05-04 02:09 55.55117 -4.78669 1999 ft 129 kts 358°
2026-05-04 02:09 55.56007 -4.78545 1982 ft 130 kts 18°
2026-05-04 02:09 55.56591 -4.77401 1983 ft 133 kts 77°
2026-05-04 02:10 55.56319 -4.75844 2004 ft 142 kts 123°
2026-05-04 02:10 55.55870 -4.74273 1820 ft 142 kts 111°
2026-05-04 02:10 55.55480 -4.72715 1627 ft 135 kts 117°
2026-05-04 02:10 55.55031 -4.71292 1456 ft 134 kts 121°
2026-05-04 02:11 55.54547 -4.69874 1255 ft 135 kts 121°
2026-05-04 02:11 55.54060 -4.68466 1058 ft 134 kts 122°
2026-05-04 02:11 55.53576 -4.67074 873 ft 132 kts 121°
2026-05-04 02:11 55.53104 -4.65712 691 ft 129 kts 121°
2026-05-04 02:12 55.52636 -4.64362 523 ft 128 kts 121°
2026-05-04 02:12 55.52182 -4.63050 361 ft 126 kts 121°
2026-05-04 02:12 55.51732 -4.61751 193 ft 122 kts 121°
2026-05-04 02:12 55.51293 -4.60499 90 ft 118 kts 120°
2026-05-04 02:13 55.50885 -4.59323 61 ft 94 kts 121°
2026-05-04 02:13 55.50708 -4.58785 61 ft 39 kts 122°
2026-05-04 02:13 55.50575 -4.58398 65 ft 34 kts 121°
2026-05-04 02:13 55.50457 -4.58058 68 ft 31 kts 122°
2026-05-04 02:14 55.50347 -4.57747 63 ft 29 kts 122°
2026-05-04 02:14 55.50333 -4.57574 62 ft 4 kts 46°
2026-05-04 02:14 55.50334 -4.57574 62 ft 0 kts 29°
2026-05-04 02:14 55.50338 -4.57578 67 ft 1 kts 341°
2026-05-04 02:15 55.50347 -4.57617 69 ft 10 kts 292°
2026-05-04 02:15 55.50387 -4.57814 60 ft 22 kts 291°
2026-05-04 02:15 55.50467 -4.58093 64 ft 28 kts 301°
2026-05-04 02:15 55.50579 -4.58411 65 ft 33 kts 302°
2026-05-04 02:16 55.50695 -4.58738 62 ft 27 kts 302°
2026-05-04 02:16 55.50798 -4.59017 59 ft 8 kts 322°
2026-05-04 02:16 55.50832 -4.59013 62 ft 5 kts 33°
2026-05-04 02:16 55.50849 -4.58948 57 ft 10 kts 71°
2026-05-04 02:17 55.50904 -4.58717 60 ft 29 kts 65°
2026-05-04 02:17 55.51008 -4.58334 62 ft 37 kts 64°
2026-05-04 02:17 55.51072 -4.58099 61 ft 4 kts 64°
2026-05-04 02:17 55.51072 -4.58098 61 ft 0 kts 64°
2026-05-04 02:18 55.51070 -4.58105 62 ft 0 kts 245°
2026-05-04 02:18 55.51059 -4.58148 60 ft 14 kts 245°
2026-05-04 02:18 55.51046 -4.58293 59 ft 14 kts 292°
2026-05-04 02:18 55.51127 -4.58512 59 ft 30 kts 300°
2026-05-04 02:19 55.51112 -4.58949 53 ft 35 kts 252°
2026-05-04 02:19 55.51082 -4.59125 55 ft 0 kts 262°
2026-05-04 02:21 55.51072 -4.59236 58 ft 22 kts 257°
2026-05-04 02:21 55.50981 -4.59548 59 ft 33 kts 272°
2026-05-04 02:21 55.51113 -4.59960 51 ft 46 kts 301°
2026-05-04 02:22 55.51289 -4.60480 51 ft 51 kts 297°
2026-05-04 02:22 55.51315 -4.60949 45 ft 27 kts 230°
2026-05-04 02:22 55.51172 -4.60975 48 ft 19 kts 168°
2026-05-04 02:22 55.51111 -4.60971 50 ft 4 kts 158°
2026-05-04 02:23 55.51100 -4.60950 49 ft 0 kts 124°